Time,TemperatureF,DewpointF,PressureIn,WindDirection,WindDirectionDegrees,WindSpeedMPH,WindSpeedGustMPH,Humidity,HourlyPrecipIn,Conditions,Clouds,dailyrainin,SolarRadiationWatts/m^2,SoftwareType,DateUTC
2013-06-13 00:00:00,60.0,24.0,-100.00,NE,50,1.0,3.0,24,-99.99,,,0.00,0.000000,,2013-06-13 07:00:00,
2013-06-13 00:42:00,60.0,24.0,-100.00,NE,50,1.0,3.0,24,-99.99,,,0.00,0.000000,,2013-06-13 07:42:00,
2013-06-13 00:52:00,60.0,24.0,-100.00,NE,50,1.0,3.0,24,-99.99,,,0.00,0.000000,,2013-06-13 07:52:00,
2013-06-13 01:00:00,61.0,21.0,-100.00,NW,313,5.0,10.0,20,-99.99,,,0.00,0.000000,,2013-06-13 08:00:00,
2013-06-13 01:42:00,61.0,21.0,-100.00,NW,313,5.0,10.0,20,-99.99,,,0.00,0.000000,,2013-06-13 08:42:00,
2013-06-13 01:52:00,61.0,21.0,-100.00,NW,313,5.0,10.0,20,-99.99,,,0.00,0.000000,,2013-06-13 08:52:00,
2013-06-13 02:00:00,55.0,21.0,-100.00,North,0,2.0,5.0,25,-99.99,,,0.00,0.000000,,2013-06-13 09:00:00,
2013-06-13 02:42:00,55.0,21.0,-100.00,North,0,2.0,5.0,25,-99.99,,,0.00,0.000000,,2013-06-13 09:42:00,
2013-06-13 02:52:00,55.0,21.0,-100.00,North,0,2.0,5.0,25,-99.99,,,0.00,0.000000,,2013-06-13 09:52:00,
2013-06-13 03:00:00,48.0,25.0,-100.00,NNE,16,1.0,4.0,39,-99.99,,,0.00,0.000000,,2013-06-13 10:00:00,
2013-06-13 04:00:00,46.0,25.0,-100.00,East,96,2.0,5.0,43,-99.99,,,0.00,0.000000,,2013-06-13 11:00:00,
2013-06-13 04:42:00,46.0,25.0,-100.00,East,96,2.0,5.0,43,-99.99,,,0.00,0.000000,,2013-06-13 11:42:00,
2013-06-13 04:52:00,46.0,25.0,-100.00,East,96,2.0,5.0,43,-99.99,,,0.00,0.000000,,2013-06-13 11:52:00,
2013-06-13 05:00:00,46.0,29.0,-100.00,NW,306,2.0,4.0,50,-99.99,,,0.00,0.000000,,2013-06-13 12:00:00,
2013-06-13 05:42:00,46.0,29.0,-100.00,NW,306,2.0,4.0,50,-99.99,,,0.00,0.000000,,2013-06-13 12:42:00,
2013-06-13 05:52:00,46.0,29.0,-100.00,NW,306,2.0,4.0,50,-99.99,,,0.00,0.000000,,2013-06-13 12:52:00,
2013-06-13 06:00:00,46.0,29.0,-100.00,WNW,286,1.0,2.0,50,-99.99,,,0.00,30.910000,,2013-06-13 13:00:00,
2013-06-13 06:43:00,46.0,29.0,-100.00,WNW,286,1.0,2.0,50,-99.99,,,0.00,30.910000,,2013-06-13 13:43:00,
2013-06-13 06:53:00,46.0,29.0,-100.00,WNW,286,1.0,2.0,50,-99.99,,,0.00,30.910000,,2013-06-13 13:53:00,
2013-06-13 07:00:00,56.0,30.0,-100.00,WNW,292,3.0,6.0,36,-99.99,,,0.00,222.789993,,2013-06-13 14:00:00,
2013-06-13 07:43:00,56.0,30.0,-100.00,WNW,292,3.0,6.0,36,-99.99,,,0.00,222.789993,,2013-06-13 14:43:00,
2013-06-13 07:53:00,56.0,30.0,-100.00,WNW,292,3.0,6.0,36,-99.99,,,0.00,222.789993,,2013-06-13 14:53:00,
2013-06-13 08:00:00,62.0,30.0,-100.00,NNW,343,4.0,7.0,30,-99.99,,,0.00,421.070007,,2013-06-13 15:00:00,
2013-06-13 08:43:00,62.0,30.0,-100.00,NNW,343,4.0,7.0,30,-99.99,,,0.00,421.070007,,2013-06-13 15:43:00,
2013-06-13 08:53:00,62.0,30.0,-100.00,NNW,343,4.0,7.0,30,-99.99,,,0.00,421.070007,,2013-06-13 15:53:00,
2013-06-13 10:00:00,67.0,22.0,-100.00,WNW,296,5.0,15.0,17,-99.99,,,0.00,794.599976,,2013-06-13 17:00:00,
2013-06-13 10:43:00,67.0,22.0,-100.00,WNW,296,5.0,15.0,17,-99.99,,,0.00,794.599976,,2013-06-13 17:43:00,
2013-06-13 10:53:00,67.0,22.0,-100.00,WNW,296,5.0,15.0,17,-99.99,,,0.00,794.599976,,2013-06-13 17:53:00,
2013-06-13 11:00:00,70.0,20.0,-100.00,West,273,6.0,13.0,14,-99.99,,,0.00,929.760010,,2013-06-13 18:00:00,
2013-06-13 11:43:00,70.0,20.0,-100.00,West,273,6.0,13.0,14,-99.99,,,0.00,929.760010,,2013-06-13 18:43:00,
2013-06-13 11:52:00,70.0,20.0,-100.00,West,273,6.0,13.0,14,-99.99,,,0.00,929.760010,,2013-06-13 18:52:00,
2013-06-13 12:00:00,73.0,13.0,-100.00,NW,305,6.0,16.0,10,-99.99,,,0.00,1016.919983,,2013-06-13 19:00:00,
2013-06-13 12:43:00,73.0,13.0,-100.00,NW,305,6.0,16.0,10,-99.99,,,0.00,1016.919983,,2013-06-13 19:43:00,
2013-06-13 12:53:00,73.0,13.0,-100.00,NW,305,6.0,16.0,10,-99.99,,,0.00,1016.919983,,2013-06-13 19:53:00,
2013-06-13 13:00:00,75.0,6.0,-100.00,SE,140,4.0,13.0,6,-99.99,,,0.00,1052.949951,,2013-06-13 20:00:00,
2013-06-13 13:43:00,75.0,6.0,-100.00,SE,140,4.0,13.0,6,-99.99,,,0.00,1052.949951,,2013-06-13 20:43:00,
2013-06-13 13:53:00,75.0,6.0,-100.00,SE,140,4.0,13.0,6,-99.99,,,0.00,1052.949951,,2013-06-13 20:53:00,
2013-06-13 14:00:00,80.0,2.0,-100.00,WNW,291,7.0,21.0,4,-99.99,,,0.00,1036.680054,,2013-06-13 21:00:00,
2013-06-13 14:43:00,80.0,2.0,-100.00,WNW,291,7.0,21.0,4,-99.99,,,0.00,1036.680054,,2013-06-13 21:43:00,
2013-06-13 14:52:00,80.0,2.0,-100.00,WNW,291,7.0,21.0,4,-99.99,,,0.00,1036.680054,,2013-06-13 21:52:00,
2013-06-13 15:00:00,80.0,-9.0,-100.00,West,260,10.0,17.0,2,-99.99,,,0.00,953.000000,,2013-06-13 22:00:00,
2013-06-13 15:42:00,80.0,-9.0,-100.00,West,260,10.0,17.0,2,-99.99,,,0.00,953.000000,,2013-06-13 22:42:00,
2013-06-13 15:52:00,80.0,-9.0,-100.00,West,260,10.0,17.0,2,-99.99,,,0.00,953.000000,,2013-06-13 22:52:00,
2013-06-13 16:00:00,80.0,-2.0,-100.00,WSW,253,12.0,20.0,3,-99.99,,,0.00,815.169983,,2013-06-13 23:00:00,
2013-06-13 16:43:00,80.0,-2.0,-100.00,WSW,253,12.0,20.0,3,-99.99,,,0.00,815.169983,,2013-06-13 23:43:00,
2013-06-13 16:52:00,80.0,-2.0,-100.00,WSW,253,12.0,20.0,3,-99.99,,,0.00,815.169983,,2013-06-13 23:52:00,
2013-06-13 17:00:00,81.0,5.0,-100.00,WNW,288,9.0,18.0,5,-99.99,,,0.00,638.049988,,2013-06-14 00:00:00,
2013-06-13 17:43:00,81.0,5.0,-100.00,WNW,288,9.0,18.0,5,-99.99,,,0.00,638.049988,,2013-06-14 00:43:00,
2013-06-13 17:53:00,81.0,5.0,-100.00,WNW,288,9.0,18.0,5,-99.99,,,0.00,638.049988,,2013-06-14 00:53:00,
2013-06-13 18:00:00,79.0,4.0,-100.00,West,280,12.0,22.0,5,-99.99,,,0.00,446.980011,,2013-06-14 01:00:00,
2013-06-13 18:43:00,79.0,4.0,-100.00,West,280,12.0,22.0,5,-99.99,,,0.00,446.980011,,2013-06-14 01:43:00,
2013-06-13 18:52:00,79.0,4.0,-100.00,West,280,12.0,22.0,5,-99.99,,,0.00,446.980011,,2013-06-14 01:52:00,
2013-06-13 19:00:00,77.0,10.0,-100.00,WNW,299,11.0,19.0,7,-99.99,,,0.00,243.710007,,2013-06-14 02:00:00,
2013-06-13 19:43:00,77.0,10.0,-100.00,WNW,299,11.0,19.0,7,-99.99,,,0.00,243.710007,,2013-06-14 02:43:00,
2013-06-13 19:52:00,77.0,10.0,-100.00,WNW,299,11.0,19.0,7,-99.99,,,0.00,243.710007,,2013-06-14 02:52:00,
2013-06-13 20:00:00,73.0,15.0,-100.00,NW,305,12.0,23.0,10,-99.99,,,0.00,54.740002,,2013-06-14 03:00:00,
2013-06-13 20:43:00,73.0,15.0,-100.00,NW,305,12.0,23.0,10,-99.99,,,0.00,54.740002,,2013-06-14 03:43:00,
2013-06-13 20:53:00,73.0,15.0,-100.00,NW,305,12.0,23.0,10,-99.99,,,0.00,54.740002,,2013-06-14 03:53:00,
2013-06-13 21:00:00,69.0,18.0,-100.00,WNW,302,7.0,12.0,13,-99.99,,,0.00,0.000000,,2013-06-14 04:00:00,
2013-06-13 21:43:00,69.0,18.0,-100.00,WNW,302,7.0,12.0,13,-99.99,,,0.00,0.000000,,2013-06-14 04:43:00,
2013-06-13 21:53:00,69.0,18.0,-100.00,WNW,302,7.0,12.0,13,-99.99,,,0.00,0.000000,,2013-06-14 04:53:00,
2013-06-13 22:00:00,67.0,19.0,-100.00,WNW,302,8.0,13.0,15,-99.99,,,0.00,0.000000,,2013-06-14 05:00:00,
2013-06-13 22:43:00,67.0,19.0,-100.00,WNW,302,8.0,13.0,15,-99.99,,,0.00,0.000000,,2013-06-14 05:43:00,
2013-06-13 22:52:00,67.0,19.0,-100.00,WNW,302,8.0,13.0,15,-99.99,,,0.00,0.000000,,2013-06-14 05:52:00,
2013-06-13 23:00:00,64.0,23.0,-100.00,North,358,9.0,16.0,20,-99.99,,,0.00,0.000000,,2013-06-14 06:00:00,
2013-06-13 23:43:00,64.0,23.0,-100.00,North,358,9.0,16.0,20,-99.99,,,0.00,0.000000,,2013-06-14 06:43:00,
2013-06-13 23:52:00,64.0,23.0,-100.00,North,358,9.0,16.0,20,-99.99,,,0.00,0.000000,,2013-06-14 06:52:00,